{"data":{"norad_id":52832,"epoch":"2026-05-25T00:20:53.231136Z","epoch_age_seconds":76892,"freshness":"FRESH","line1":"1 52832U 22062C   26145.01450499  .00000391  00000+0  42671-4 0  9998","line2":"2 52832  53.2163  51.4836 0001636  90.1754 269.9426 15.08841672217304","mean_motion":15.08841672,"eccentricity":0.0001636,"inclination_deg":53.2163,"raan_deg":51.4836,"arg_perigee_deg":90.1754,"mean_anomaly_deg":269.9426,"bstar":4.2671e-5,"rev_number":21730,"period_min":95.437448920088,"perigee_km":538.60651393818,"apogee_km":540.87004272925,"semimajor_km":6917.8752783337,"source":"CELESTRAK","updated_at":"2026-05-25T13:38:17.240554Z"}}